Simultaneous Nadir Overpasses (SNOs) Predictions

Prediction of SNOs between LANDSAT-8 and METOP-B Satellite Orbit:

Table of predicted SNOs for the next 14.0 days since TLE Epoch: 5/2/2020
Index Date (LANDSAT-8) Time (LANDSAT-8) Lat,Lon (LANDSAT-8) SZA (LANDSAT-8 ) Date (METOP-B) Time (METOP-B) Lat,Lon (METOP-B) SZA (METOP-B ) Distance(km) Time Diff (sec)
1 05/03/2020 01:26:17 -81.08, 17.03 112.61 05/03/2020 01:25:03 -81.08, 17.11 112.63 1.40 74
2 05/03/2020 02:15:42 81.10,-174.94 67.44 05/03/2020 02:15:42 81.11,-174.83 67.46 1.78 0
3 05/03/2020 03:05:08 -81.13, -6.96 112.52 05/03/2020 03:06:21 -81.13, -6.89 112.48 1.16 73
4 05/05/2020 21:00:30 -81.07, 83.31 113.43 05/05/2020 20:59:25 -81.07, 83.37 113.45 1.16 65
5 05/05/2020 21:49:55 81.09,-108.68 66.62 05/05/2020 21:50:04 81.10,-108.61 66.64 1.34 9
6 05/08/2020 16:34:43 -81.08, 149.92 114.17 05/08/2020 16:33:47 -81.08, 149.99 114.18 1.15 56
7 05/08/2020 17:24:08 81.10, -42.09 65.88 05/08/2020 17:24:26 81.11, -42.03 65.90 1.04 18
8 05/11/2020 12:08:56 -81.09,-143.49 114.87 05/11/2020 12:08:09 -81.09,-143.40 114.88 1.64 47
9 05/11/2020 12:58:21 81.11, 24.47 65.18 05/11/2020 12:58:48 81.11, 24.54 65.20 1.17 27
10 05/14/2020 07:43:08 -81.10, -76.94 115.54 05/14/2020 07:42:30 -81.10, -76.80 115.54 2.50 38




NCC Satellite Simultaneous Nadir Overpasses (SNOs) Prediction Service
